sat.trackr.live / text

‹ back to catalog

COSMOS 2506

NORAD 40699 · 2015-029A

PAYLOAD ACTIVE UNKNOWN

§ Identity

Operator
Country
CIS
Launch date
2015-06-23
Launch site
PLMSC
Launch vehicle
Mass (kg)
RCS (m²)
14.20

External: N2YO · Heavens-Above · Gunter

§ Orbital elements

Epoch: 2026-05-25T04:35:28.663872Z

Period
99.01 min
Inclination
98.0480°
Eccentricity
0.0006236
Mean motion
14.54376660 rev/d
Perigee alt
707.0 km
Apogee alt
715.8 km
Semi-major
7,089.5 km
B*
2.5345e-5
RAAN
186.8856°
Arg perigee
219.0444°
Mean anomaly
141.0303°
Rev number
57,954

§ Raw data

COSMOS 25061 40699U 15029A   26145.19130398  .00000065  00000+0  25345-4 0  99902 40699  98.0480 186.8856 0006236 219.0444 141.0303 14.54376660579546

JSON: /api/v1/satellites/40699 · /tle

For live sub-satellite position, see the globe view (requires WebGL).

§ Visibility from observer

Set your observer location to see the next 7 days of passes ≥ 10°. The values pass through the URL so the page stays shareable.

No JS? Fill the form by hand. The geolocation button needs JavaScript.